Home   Weather   Tours   Past weeks

Flag for France Past Weather in Tours, Centre-Val de Loire, France — Yesterday and Last 2 Weeks

Now
68 °F

Sunny.


Feels Like: 68 °F
Forecast: 49 / 72 °F
Wind: 3 mph from Southeast

Location: Tours Airport

Current Time: Sep 26, 2016 at 7:29:39 PM

Latest Report: Sep 26, 2016 at 7:00 PM


Visibility: 10 mi

Pressure: 30.18 "Hg

Humidity: 43%

Dew Point: 45 °F

Location of ToursLocation

Past Weather in Tours — Graph

°F

Tours Temperature Yesterday

Maximum temperature yesterday: 72 °F (at 5:00 PM)
Minimum temperature yesterday: 54 °F (at 11:30 PM)
Average temperature yesterday: 64 °F

High & Low Weather Summary for the Past Weeks

 TemperatureHumidityPressure
High93 °F (Sep 13, 5:00 PM)100% (Sep 16, 3:30 PM)30.27 "Hg (Sep 16, 3:30 PM)
Low50 °F (Sep 21, 7:00 AM)28% (Sep 13, 5:00 PM)29.68 "Hg (Sep 13, 7:00 PM)
Average64 °F72%30.04 "Hg
* Reported Sep 11 6:00 PM — Sep 26 6:00 PM, Tours, Weather by CustomWeather, © 2016

Note: Actual official high and low records may vary slightly from our data, if they occured in-between our weather recording intervals... More about our weather records

Advertising

Tours Weather History for the Previous 24 Hours

Scroll right to see more
 ConditionsComfort  
Time TempWeatherWind HumidityBarometerVisibility
6:00 PM
Mon, Sep 26
70 °FSunny.2 mph38%30.15 "Hg10 mi
5:30 PM72 °FPassing clouds.3 mph36%30.18 "HgN/A
4:30 PM72 °FPassing clouds.3 mph36%30.18 "HgN/A
4:00 PM72 °FSunny.5 mph38%30.18 "Hg10 mi
3:30 PM70 °FSunny.3 mph40%30.18 "Hg10 mi
3:00 PM72 °FSunny.6 mph41%30.18 "Hg10 mi
2:30 PM70 °FScattered clouds.5 mph43%30.18 "HgN/A
2:00 PM70 °FPassing clouds.6 mph46%30.18 "HgN/A
1:30 PM68 °FPassing clouds.8 mph49%30.18 "HgN/A
1:00 PM68 °FPassing clouds.7 mph49%30.21 "HgN/A
12:30 PM66 °FPassing clouds.7 mph56%30.21 "HgN/A
12:00 PM63 °FPassing clouds.6 mph64%30.21 "HgN/A
11:30 AM59 °FPassing clouds.3 mph68%30.21 "HgN/A
11:00 AM57 °FSunny.7 mph72%30.21 "Hg10 mi
10:30 AM55 °FPassing clouds.5 mph77%30.21 "HgN/A
10:00 AM54 °FSunny.3 mph82%30.21 "Hg10 mi
9:30 AM54 °FSunny.7 mph77%30.21 "Hg10 mi
9:00 AM54 °FSunny.8 mph77%30.18 "Hg10 mi
8:30 AM52 °FSunny.5 mph82%30.21 "Hg10 mi
8:00 AM52 °FSunny.3 mph77%30.21 "Hg10 mi
7:30 AM52 °FClear.2 mph77%30.21 "Hg10 mi
7:00 AM54 °FClear.3 mph72%30.21 "Hg10 mi
6:30 AM52 °FClear.5 mph72%30.21 "Hg10 mi
6:00 AM50 °FClear.3 mph76%30.21 "Hg10 mi
5:30 AM50 °FClear.3 mph76%30.21 "Hg10 mi
5:00 AM50 °FClear.3 mph76%30.21 "Hg10 mi
4:30 AM50 °FClear.3 mph82%30.21 "Hg10 mi
4:00 AM50 °FClear.3 mph82%30.21 "Hg10 mi
3:30 AM52 °FClear.2 mph72%30.24 "Hg10 mi
3:00 AM50 °FClear.1 mph82%30.24 "Hg10 mi
2:30 AM50 °FClear.2 mph82%30.24 "Hg10 mi
2:00 AM52 °FClear.2 mph77%30.24 "Hg10 mi
1:30 AM52 °FClear.3 mph72%30.21 "Hg10 mi
1:00 AM54 °FClear.2 mph67%30.21 "Hg10 mi
12:30 AM54 °FClear.3 mph72%30.21 "Hg10 mi
12:00 AM54 °FClear.3 mph72%30.24 "Hg10 mi
11:30 PM
Sun, Sep 25
54 °FClear.5 mph72%30.24 "Hg10 mi
10:30 PM55 °FClear.2 mph63%30.21 "Hg10 mi
10:00 PM57 °FClear.No wind59%30.21 "Hg10 mi
9:30 PM59 °FClear.No wind55%30.21 "Hg10 mi
9:00 PM61 °FClear.No wind52%30.21 "Hg10 mi
8:30 PM63 °FClear.2 mph49%30.21 "Hg10 mi
8:00 PM64 °FClear.3 mph46%30.18 "Hg10 mi
7:30 PM66 °FSunny.5 mph43%30.18 "Hg10 mi
7:00 PM68 °FPassing clouds.7 mph40%30.18 "HgN/A
Weather by CustomWeather, © 2016

See weather overviewHow to use our weather pages